Regional Weather Roundup
Issued by NWS

Home | Current Version | Previous Version | Graphics & Text | Print | Product List | Glossary On
Versions: 1 2 3 4 5 6 7 8 9 10 11 12 13 14 15 16 17 18 19 20 21 22 23 24 25 26 27 28 29 30 31 32 33 34 35 36 37 38 39 40 41 42 43 44 45 46 47 48 49 50
000
ASUS45 KABQ 301210
RWRNM
WEATHER ROUNDUP FOR NEW MEXICO
NATIONAL WEATHER SERVICE ALBUQUERQUE NM
600 AM MDT THU OCT 30 2014

NOTE: "FAIR" MEANS FEW OR NO CLOUDS BELOW 12,000 FEET AGL WITH NO
       SIGNIFICANT WEATHER OR OBSTRUCTIONS TO VISION.

      THIS PRODUCT IS RELEASED AS TWO VERSIONS.  ONE VERSION NEAR
      THE TOP OF THE HOUR CONTAINING PRELIMINARY DATA FROM ALBUQUERQUE
      AND OTHER STATIONS.  A FINAL VERSION WITH ADDITIONAL DATA IS
      ISSUED ABOUT 10 MINUTES AFTER THE HOUR.

NMZ501-503-504-510>518-301300-
NORTHWEST PLATEAU/NORTHCENTRAL MOUNTAINS

CITY           SKY/WX    TMP DP  RH WIND       PRES   REMARKS
FARMINGTON     CLEAR     33  18  53 E8        30.31S WCI  26
6HR MIN TEMP:  31; 6HR MAX TEMP:  40;

LOS ALAMOS     CLEAR     47  10  22 NW5       30.36R
SANTA FE       PTCLDY    39  11  31 N14       30.31S WCI  31
6HR MIN TEMP:  39; 6HR MAX TEMP:  46;

TAOS           PTCLDY    27   7  43 CALM      30.38R
ANGEL FIRE     FAIR      18  11  74 CALM      30.43R

$$
NMZ402-403-502-505>509-301300-
WESTCENTRAL MOUNTAINS/SOUTHWEST MOUNTAINS

CITY           SKY/WX    TMP DP  RH WIND       PRES   REMARKS
GALLUP         MOCLDY    31  17  56 CALM      30.35S
6HR MIN TEMP:  27; 6HR MAX TEMP:  41;

GRANTS         PTCLDY    27  12  54 NW14      30.37S WCI  15
SILVER CITY    CLEAR     46  32  57 N9        30.26R

$$
NMZ407-409-411-412-301300-
SOUTHERN DESERTS

CITY           SKY/WX    TMP DP  RH WIND       PRES   REMARKS
LORDSBURG      FAIR      41  36  81 E3        30.20R
DEMING         CLEAR     41  35  79 CALM      30.20R
6HR MIN TEMP:  41; 6HR MAX TEMP:  52;

LAS CRUCES     CLEAR     47  39  73 NW6       30.21R
HOLLOMAN AFB   PTCLDY    45  35  68 E3        30.18R
T OR C         CLEAR     50  34  54 N5        30.23R
6HR MIN TEMP:  49; 6HR MAX TEMP:  56;


$$
NMZ519>523-301300-
CENTRAL VALLEYS/CENTRAL HIGHLANDS

CITY           SKY/WX    TMP DP  RH WIND       PRES   REMARKS
ALBUQUERQUE    CLEAR     50  12  21 N12       30.29R
6HR MIN TEMP:  49; 6HR MAX TEMP:  59;

DOUBLE EAGLE   CLEAR     39  12  33 NW3       30.31R
MORIARTY ARPT  FAIR      27  12  53 CALM      30.33R
6HR MIN TEMP:  23; 6HR MAX TEMP:  49;

CLINES CORNERS PTCLDY    41  11  29 NW14      30.31R
6HR MIN TEMP:  39; 6HR MAX TEMP:  48;

BELEN          NOT AVBL
SOCORRO        FAIR      45  28  50 NW9       30.27R
6HR MIN TEMP:  43; 6HR MAX TEMP:  52;


$$
NMZ524>526-539-540-301300-
SOUTHCENTRAL MOUNTAINS

CITY           SKY/WX    TMP DP  RH WIND       PRES   REMARKS
RUIDOSO        CLEAR     54  27  35 NW10      30.31R

$$
NMZ527>531-301300-
NORTHEAST HIGHLANDS/NORTHEAST PLAINS

CITY           SKY/WX    TMP DP  RH WIND       PRES   REMARKS
LAS VEGAS      CLEAR     36  14  40 N8        30.32R WCI  30
6HR MIN TEMP:  36; 6HR MAX TEMP:  49;

RATON          CLEAR     41  17  38 N7        30.30R
6HR MIN TEMP:  38; 6HR MAX TEMP:  53;

CLAYTON        NOT AVBL

$$
NMZ532>537-301300-
EASTCENTRAL PLAINS

CITY           SKY/WX    TMP DP  RH WIND       PRES   REMARKS
TUCUMCARI      CLEAR     41  33  73 NW8       30.17R
6HR MIN TEMP:  41; 6HR MAX TEMP:  56;

CANNON AFB     CLEAR     47  42  82 NW12      30.15R
6HR MIN TEMP:  47; 6HR MAX TEMP:  52;

CLOVIS AIRPORT CLEAR     45  41  87 NW12      30.17R

$$
NMZ028-029-538-301300-
SOUTHEAST PLAINS

CITY           SKY/WX    TMP DP  RH WIND       PRES   REMARKS
ROSWELL        PTCLDY    46  43  89 NW3       30.16R
6HR MIN TEMP:  45; 6HR MAX TEMP:  51;

CARLSBAD       CLEAR     47  44  90 CALM      30.13R
6HR MIN TEMP:  47; 6HR MAX TEMP:  61;

HOBBS          CLEAR     50  50 100 W5        30.15


$$



USA.gov is the U.S. government's official web portal to all federal, state and local government web resources and services.